Location: ??
(35.4824°N, 139.4679°E)
Time: 21:43:11
(UTC+00:00)

CZ-3 R/B - Pass Details

Date: 29 October 2020
Orbit: 373 x 10236 km, 28.4° (Epoch: 24 November)

Event Time Altitude Azimuth Distance (km) Brightness Sun altitude
Exits shadow 18:59:40 28° 253° (WSW) 6,988 5.3 -25.4°
Maximum altitude 19:16:03 65° 184° (S) 2,616 3.6 -22.1°
Drops below altitude 10° 19:24:13 10° 103° (ESE) 3,194 5.3 -20.4°
Sets 19:25:59 0° 100° (E) 3,751 6.1 -20.0°
